FIN1739 EFHK-LPPT

Flight info

Callsign FIN1739
Flight time N/A
Altitude 32000
Route NUNTO Y367 OLPED DCT OBEVI DCT NISIX DCT TOKSI DCT DOSUR DCT EEL DCT GISEB DCT NIK DCT CIV N872 MEDIL DCT KOVIN DCT NIDUV DCT KIHVI UN872 ERIGA DCT FUJTI DCT BAKUP DCT BATAX DCT INBOM
Aircraft A321/M-SDE3FGHIRWY/LB1

Departure

Time 2026-04-20 05:58
Airport Helsinki Vantaa Airport (EFHK)

Arrival

Time N/A
Airport Lisbon Humberto Delgado Airport (LPPT)
Time Latitude Longitude Altitude Speed Heading
2026-04-20 04:52 60.31412 24.95514 168 ft 0 kts 137°
2026-04-20 05:08 60.31412 24.95513 167 ft 0 kts 137°
2026-04-20 05:10 60.31413 24.95513 167 ft 0 kts 137°
2026-04-20 05:32 60.31413 24.95512 167 ft 0 kts 137°
2026-04-20 05:47 60.31414 24.95511 167 ft 1 kts 137°
2026-04-20 05:48 60.31431 24.95479 167 ft 4 kts 137°
2026-04-20 05:48 60.31451 24.95445 167 ft 4 kts 152°
2026-04-20 05:48 60.31475 24.95431 167 ft 4 kts 190°
2026-04-20 05:48 60.31496 24.95450 168 ft 2 kts 227°
2026-04-20 05:49 60.31499 24.95458 168 ft 0 kts 227°
2026-04-20 05:51 60.31490 24.95437 168 ft 5 kts 227°
2026-04-20 05:51 60.31461 24.95374 167 ft 6 kts 227°
2026-04-20 05:52 60.31430 24.95305 167 ft 7 kts 227°
2026-04-20 05:52 60.31393 24.95223 167 ft 9 kts 228°
2026-04-20 05:52 60.31385 24.95116 167 ft 8 kts 291°
2026-04-20 05:52 60.31413 24.95049 169 ft 6 kts 311°
2026-04-20 05:53 60.31445 24.94945 168 ft 10 kts 279°
2026-04-20 05:53 60.31407 24.94813 165 ft 13 kts 227°
2026-04-20 05:53 60.31340 24.94665 161 ft 16 kts 228°
2026-04-20 05:53 60.31265 24.94487 159 ft 17 kts 231°
2026-04-20 05:54 60.31187 24.94333 159 ft 15 kts 221°
2026-04-20 05:54 60.31114 24.94167 157 ft 15 kts 226°
2026-04-20 05:54 60.31046 24.94017 158 ft 8 kts 228°
2026-04-20 05:54 60.31032 24.93920 158 ft 7 kts 277°
2026-04-20 05:55 60.31047 24.93824 159 ft 7 kts 293°
2026-04-20 05:55 60.31081 24.93754 158 ft 8 kts 319°
2026-04-20 05:55 60.31132 24.93687 157 ft 9 kts 352°
2026-04-20 05:55 60.31177 24.93745 158 ft 7 kts 47°
2026-04-20 05:56 60.31183 24.93758 158 ft 0 kts 48°
2026-04-20 05:57 60.31242 24.93892 159 ft 45 kts 48°
2026-04-20 05:57 60.31631 24.94740 168 ft 117 kts 47°
2026-04-20 05:58 60.32325 24.96238 201 ft 172 kts 47°
2026-04-20 05:58 60.33206 24.98129 666 ft 191 kts 45°
2026-04-20 05:58 60.34135 25.00088 998 ft 207 kts 47°
2026-04-20 05:58 60.35156 25.02363 1259 ft 229 kts 48°
2026-04-20 05:59 60.36243 25.04819 1770 ft 237 kts 48°
2026-04-20 05:59 60.37353 25.07318 2492 ft 240 kts 48°
2026-04-20 05:59 60.38481 25.09831 3210 ft 241 kts 47°
2026-04-20 05:59 60.39821 25.11897 3903 ft 245 kts 27°
2026-04-20 06:00 60.41470 25.12838 4595 ft 250 kts
2026-04-20 06:00 60.43225 25.12907 5301 ft 253 kts
2026-04-20 06:00 60.44968 25.12952 5977 ft 255 kts
2026-04-20 06:00 60.46749 25.13009 6663 ft 257 kts
2026-04-20 06:01 60.48524 25.12337 7239 ft 268 kts 338°
2026-04-20 06:01 60.49979 25.09903 7792 ft 281 kts 307°
2026-04-20 06:01 60.50645 25.06132 8341 ft 293 kts 276°
2026-04-20 06:01 60.50685 25.01963 8901 ft 297 kts 272°
2026-04-20 06:02 60.50687 24.97734 9490 ft 300 kts 272°
2026-04-20 06:02 60.50686 24.93475 10089 ft 304 kts 271°
2026-04-20 06:02 60.50558 24.90623 10446 ft 307 kts 261°
2026-04-20 06:02 60.49631 24.85013 10738 ft 330 kts 241°
2026-04-20 06:03 60.48267 24.81119 10874 ft 348 kts 228°
2026-04-20 06:03 60.46631 24.77343 11000 ft 365 kts 228°
2026-04-20 06:03 60.44925 24.73383 11126 ft 381 kts 229°
2026-04-20 06:03 60.43149 24.69240 11250 ft 397 kts 229°
2026-04-20 06:04 60.41931 24.66394 11337 ft 407 kts 229°
2026-04-20 06:04 60.40057 24.62016 11667 ft 415 kts 229°
2026-04-20 06:04 60.38153 24.57574 12144 ft 419 kts 229°
2026-04-20 06:04 60.36229 24.53099 12653 ft 423 kts 229°
2026-04-20 06:05 60.34286 24.48594 13158 ft 427 kts 229°
2026-04-20 06:05 60.32324 24.44061 13641 ft 431 kts 229°
2026-04-20 06:05 60.30341 24.39490 14148 ft 435 kts 229°
2026-04-20 06:05 60.28335 24.34874 14611 ft 438 kts 229°
2026-04-20 06:06 60.26321 24.30238 15070 ft 441 kts 229°
2026-04-20 06:06 60.24291 24.25572 15528 ft 444 kts 229°
2026-04-20 06:06 60.22247 24.20888 15988 ft 447 kts 229°
2026-04-20 06:06 60.20217 24.16246 16420 ft 449 kts 229°
2026-04-20 06:07 60.18136 24.11503 16847 ft 452 kts 228°
2026-04-20 06:07 60.16044 24.06748 17271 ft 454 kts 228°
2026-04-20 06:07 60.13942 24.01982 17683 ft 457 kts 228°
2026-04-20 06:07 60.11823 23.97182 18096 ft 460 kts 228°
2026-04-20 06:08 60.09772 23.92345 18481 ft 462 kts 233°
2026-04-20 06:08 60.07995 23.86871 18836 ft 464 kts 242°
2026-04-20 06:08 60.06662 23.81073 19168 ft 465 kts 249°
2026-04-20 06:08 60.05449 23.75048 19517 ft 467 kts 249°
2026-04-20 06:09 60.04221 23.69009 19866 ft 469 kts 249°
2026-04-20 06:09 60.02973 23.62927 20210 ft 472 kts 249°
2026-04-20 06:09 60.01715 23.56835 20555 ft 474 kts 249°
2026-04-20 06:09 60.00448 23.50731 20897 ft 476 kts 248°
2026-04-20 06:10 59.99187 23.44668 21223 ft 478 kts 248°
2026-04-20 06:10 59.97900 23.38501 21556 ft 480 kts 248°
2026-04-20 06:10 59.96608 23.32320 21895 ft 482 kts 248°
2026-04-20 06:10 59.95312 23.26127 22215 ft 484 kts 248°
2026-04-20 06:11 59.94004 23.19898 22547 ft 486 kts 248°
2026-04-20 06:11 59.92688 23.13651 22839 ft 488 kts 248°
2026-04-20 06:11 59.91382 23.07483 23135 ft 490 kts 248°
2026-04-20 06:11 59.90048 23.01198 23436 ft 493 kts 248°
2026-04-20 06:12 59.88705 22.94887 23746 ft 494 kts 248°
2026-04-20 06:12 59.87357 22.88556 24040 ft 496 kts 248°
2026-04-20 06:12 59.86006 22.82214 24298 ft 498 kts 248°
2026-04-20 06:12 59.84669 22.75957 24662 ft 497 kts 248°
2026-04-20 06:13 59.83311 22.69635 25040 ft 496 kts 248°
2026-04-20 06:13 59.81946 22.63314 25410 ft 495 kts 248°
2026-04-20 06:13 59.80586 22.57025 25789 ft 494 kts 248°
2026-04-20 06:13 59.79224 22.50746 26159 ft 493 kts 247°
2026-04-20 06:14 59.77866 22.44502 26520 ft 493 kts 247°
2026-04-20 06:14 59.76506 22.38259 26886 ft 492 kts 247°
2026-04-20 06:14 59.75158 22.32094 27252 ft 491 kts 247°
2026-04-20 06:14 59.73794 22.25881 27607 ft 490 kts 247°
2026-04-20 06:15 59.72428 22.19682 27986 ft 490 kts 247°
2026-04-20 06:15 59.71063 22.13501 28330 ft 489 kts 247°
2026-04-20 06:15 59.69704 22.07318 28695 ft 488 kts 247°
2026-04-20 06:15 59.68349 22.01150 29054 ft 487 kts 247°
2026-04-20 06:16 59.66997 21.95002 29405 ft 486 kts 247°
2026-04-20 06:16 59.65644 21.88874 29762 ft 486 kts 247°
2026-04-20 06:16 59.64301 21.82835 30103 ft 485 kts 247°
2026-04-20 06:16 59.62938 21.76729 30446 ft 484 kts 247°
2026-04-20 06:17 59.61576 21.70636 30752 ft 483 kts 247°
2026-04-20 06:17 59.60215 21.64561 31016 ft 483 kts 247°
2026-04-20 06:17 59.58869 21.58569 31288 ft 482 kts 247°
2026-04-20 06:17 59.57506 21.52519 31560 ft 481 kts 246°
2026-04-20 06:18 59.56137 21.46488 31830 ft 481 kts 246°
2026-04-20 06:18 59.54761 21.40477 32085 ft 480 kts 246°
2026-04-20 06:18 59.53376 21.34465 32313 ft 480 kts 246°
2026-04-20 06:18 59.52003 21.28538 32386 ft 482 kts 246°
2026-04-20 06:19 59.49208 21.16518 32395 ft 482 kts 246°
2026-04-20 06:19 59.46408 21.04509 32396 ft 482 kts 246°
2026-04-20 06:20 59.43598 20.92523 32390 ft 482 kts 246°
2026-04-20 06:20 59.40783 20.80559 32388 ft 482 kts 246°
2026-04-20 06:21 59.37975 20.68689 32391 ft 482 kts 246°
2026-04-20 06:21 59.35132 20.56779 32400 ft 482 kts 245°
2026-04-20 06:22 59.32266 20.44899 32402 ft 482 kts 245°
2026-04-20 06:22 59.29191 20.33323 32400 ft 482 kts 241°
2026-04-20 06:23 59.25840 20.21964 32399 ft 482 kts 240°
2026-04-20 06:23 59.22442 20.10655 32400 ft 482 kts 240°
2026-04-20 06:24 59.19104 19.99308 32402 ft 481 kts 241°
2026-04-20 06:24 59.15809 19.88028 32401 ft 481 kts 240°
2026-04-20 06:25 59.12470 19.76690 32400 ft 481 kts 240°
2026-04-20 06:25 59.09117 19.65405 32402 ft 481 kts 240°
2026-04-20 06:26 59.05755 19.54151 32403 ft 481 kts 240°
2026-04-20 06:26 59.02404 19.42974 32403 ft 481 kts 240°
2026-04-20 06:27 58.99027 19.31747 32406 ft 481 kts 240°
2026-04-20 06:27 58.95654 19.20618 32405 ft 481 kts 240°
2026-04-20 06:28 58.92253 19.09444 32405 ft 480 kts 239°
2026-04-20 06:28 58.88864 18.98363 32407 ft 480 kts 239°
2026-04-20 06:29 58.85455 18.87257 32407 ft 480 kts 239°
2026-04-20 06:29 58.82036 18.76163 32406 ft 479 kts 239°
2026-04-20 06:30 58.78609 18.65105 32407 ft 479 kts 239°
2026-04-20 06:30 58.75202 18.54168 32405 ft 479 kts 239°
2026-04-20 06:31 58.71758 18.43158 32407 ft 479 kts 239°
2026-04-20 06:31 58.68314 18.32184 32405 ft 478 kts 239°
2026-04-20 06:32 58.64861 18.21241 32401 ft 478 kts 238°
2026-04-20 06:32 58.61417 18.10400 32401 ft 478 kts 238°
2026-04-20 06:33 58.57937 17.99515 32404 ft 478 kts 238°
2026-04-20 06:33 58.54460 17.88649 32402 ft 477 kts 238°
2026-04-20 06:34 58.51002 17.77889 32404 ft 477 kts 238°
2026-04-20 06:35 58.45762 17.61676 32406 ft 477 kts 238°
2026-04-20 06:35 58.42257 17.50909 32407 ft 476 kts 237°
2026-04-20 06:36 58.38763 17.40231 32407 ft 476 kts 237°
2026-04-20 06:36 58.35254 17.29525 32410 ft 476 kts 237°
2026-04-20 06:37 58.31733 17.18841 32411 ft 476 kts 237°
2026-04-20 06:37 58.28200 17.08199 32412 ft 475 kts 237°
2026-04-20 06:38 58.24676 16.97632 32414 ft 475 kts 237°
2026-04-20 06:38 58.21133 16.87051 32414 ft 475 kts 237°
2026-04-20 06:39 58.17583 16.76464 32417 ft 475 kts 237°
2026-04-20 06:39 58.14025 16.65903 32417 ft 475 kts 237°
2026-04-20 06:40 58.10476 16.55424 32416 ft 475 kts 236°
2026-04-20 06:40 58.06901 16.44925 32416 ft 475 kts 236°
2026-04-20 06:41 58.03308 16.34435 32419 ft 475 kts 236°
2026-04-20 06:41 57.99731 16.24045 32418 ft 474 kts 236°
2026-04-20 06:42 57.96135 16.13602 32418 ft 474 kts 236°
2026-04-20 06:42 57.92539 16.03180 32421 ft 474 kts 236°
2026-04-20 06:43 57.88930 15.92790 32419 ft 474 kts 236°
2026-04-20 06:43 57.85331 15.82508 32419 ft 473 kts 236°
2026-04-20 06:44 57.81695 15.72170 32418 ft 473 kts 236°
2026-04-20 06:44 57.78065 15.61859 32416 ft 473 kts 236°
2026-04-20 06:45 57.74446 15.51619 32411 ft 473 kts 236°
2026-04-20 06:45 57.70795 15.41374 32415 ft 472 kts 236°
2026-04-20 06:46 57.67162 15.31208 32407 ft 472 kts 235°
2026-04-20 06:46 57.63505 15.21014 32408 ft 472 kts 235°
2026-04-20 06:47 57.59839 15.10838 32410 ft 472 kts 235°
2026-04-20 06:47 57.56172 15.00661 32405 ft 472 kts 235°
2026-04-20 06:48 57.52520 14.90589 32399 ft 471 kts 235°
2026-04-20 06:48 57.48832 14.80495 32400 ft 471 kts 235°
2026-04-20 06:49 57.45135 14.70395 32395 ft 471 kts 235°
2026-04-20 06:49 57.41460 14.60390 32381 ft 471 kts 234°
2026-04-20 06:50 57.37745 14.50350 32367 ft 471 kts 234°
2026-04-20 06:50 57.34058 14.40419 32355 ft 471 kts 234°
2026-04-20 06:51 57.30343 14.30429 32345 ft 471 kts 234°
2026-04-20 06:51 57.27246 14.22133 32340 ft 471 kts 234°
2026-04-20 06:52 57.23516 14.12189 32341 ft 471 kts 234°
2026-04-20 06:52 57.19772 14.02240 32345 ft 471 kts 234°
2026-04-20 06:53 57.16035 13.92388 32350 ft 471 kts 233°
2026-04-20 06:53 57.12065 13.82782 32357 ft 470 kts 230°
2026-04-20 06:54 57.07876 13.73515 32361 ft 470 kts 229°
2026-04-20 06:54 57.03695 13.64357 32368 ft 470 kts 229°
2026-04-20 06:55 56.99531 13.55077 32363 ft 470 kts 230°
2026-04-20 06:55 56.95409 13.45828 32354 ft 470 kts 230°
2026-04-20 06:56 56.91252 13.36560 32352 ft 470 kts 230°
2026-04-20 06:56 56.87086 13.27326 32349 ft 470 kts 230°
2026-04-20 06:57 56.82905 13.18108 32344 ft 471 kts 230°
2026-04-20 06:57 56.78722 13.08912 32343 ft 471 kts 230°
2026-04-20 06:58 56.74527 12.99735 32339 ft 471 kts 229°
2026-04-20 06:58 56.70355 12.90634 32340 ft 471 kts 229°
2026-04-20 06:59 56.66155 12.81497 32342 ft 470 kts 229°
2026-04-20 06:59 56.61929 12.72349 32347 ft 470 kts 229°
2026-04-20 07:00 56.57734 12.63305 32340 ft 470 kts 229°
2026-04-20 07:00 56.53505 12.54235 32337 ft 470 kts 229°
2026-04-20 07:01 56.49295 12.45238 32326 ft 470 kts 229°
2026-04-20 07:01 56.45055 12.36194 32314 ft 470 kts 229°
2026-04-20 07:02 56.40809 12.27175 32323 ft 470 kts 228°
2026-04-20 07:02 56.36586 12.18237 32326 ft 470 kts 228°
2026-04-20 07:03 56.32327 12.09253 32322 ft 470 kts 228°
2026-04-20 07:03 56.28103 12.00379 32319 ft 469 kts 228°
2026-04-20 07:04 56.23847 11.91479 32319 ft 468 kts 227°
2026-04-20 07:04 56.19593 11.82616 32317 ft 467 kts 227°
2026-04-20 07:05 56.15370 11.73835 32313 ft 466 kts 227°
2026-04-20 07:05 56.11126 11.65054 32311 ft 465 kts 227°
2026-04-20 07:06 56.06883 11.56308 32307 ft 464 kts 227°
2026-04-20 07:06 56.02667 11.47643 32301 ft 463 kts 227°
2026-04-20 07:07 55.98419 11.38956 32296 ft 463 kts 226°
2026-04-20 07:07 55.94172 11.30305 32293 ft 462 kts 226°